Location: MAC-Johnson Site
(33.6264°N, 81.2093°W)
Time: 12:14:30
(UTC-04:00)

ACS3 Solar Sail - Visible Passes

Search period start: 08 September 2024 00:00
Search period end: 18 September 2024 00:00
Orbit: 981 x 1029 km, 97.4° (Epoch: 07 September)

Date Brightness Start Highest point End Pass type
(mag) Time Alt. Az. Time Alt. Az. Time Alt. Az.
08 Sep 3.5 20:21:02 11° E 20:24:08 15° ENE 20:27:32 10° NNE visible
08 Sep 1.9 22:06:20 62° SSW 22:07:24 76° W 22:13:49 10° NNW visible
09 Sep 2.8 20:55:07 24° E 20:57:16 29° ENE 21:02:38 10° NNE visible
09 Sep 2.9 22:40:24 37° WSW 22:41:04 38° W 22:46:59 10° NNW visible
10 Sep 2.0 21:29:06 47° ESE 21:30:31 56° ENE 21:36:45 10° N visible
10 Sep 3.9 23:14:24 19° W 23:14:50 19° W 23:19:14 10° NW visible
11 Sep 3.5 20:17:44 11° E 20:20:38 15° ENE 20:23:55 10° NNE visible
11 Sep 1.9 22:03:00 66° SSW 22:03:51 77° W 22:10:16 10° NNW visible
12 Sep 2.8 20:51:33 24° E 20:53:30 29° ENE 20:58:48 10° NNE visible
12 Sep 2.9 22:36:49 39° WSW 22:37:16 39° W 22:43:12 10° NNW visible
13 Sep 2.0 21:25:17 48° ESE 21:26:29 54° ENE 21:32:41 10° N visible
13 Sep 3.9 23:10:33 20° W 23:10:45 20° W 23:15:14 10° NW visible
14 Sep 3.5 20:13:40 11° E 20:16:22 14° ENE 20:19:30 10° NNE visible
14 Sep 1.8 21:58:55 72° SSW 21:59:33 80° WSW 22:05:58 10° NNW visible
15 Sep 2.8 20:47:13 24° E 20:48:59 27° ENE 20:54:12 10° NNE visible
15 Sep 2.8 22:32:28 41° WSW 22:32:42 41° W 22:38:40 10° NNW visible
16 Sep 2.0 21:20:42 48° ESE 21:21:42 52° ENE 21:27:51 10° N visible
16 Sep 3.8 23:05:57 21° W 23:05:57 21° W 23:10:32 10° NW visible
17 Sep 3.5 20:08:51 11° E 20:11:22 13° ENE 20:14:13 10° NE visible
17 Sep 1.8 21:54:05 78° SSW 21:54:30 83° WSW 22:00:54 10° NNW visible
